Theta_e
308 312 314 316 319 318 323 325 321 324 322 322 322 322 325 330 328 324 334 333 333 333 334 333 331 331 327 325 324 323 318 309 306 307 307 306 306 306 308 307 314 318 321 320 317 317 317 317 317
309 312 314 316 321 326 325 321 322 319 319 324 326 326 329 332 335 334 334 334 335 335 334 331 330 330 326 326 322 320 314 306 307 307 306 306 306 306 307 309 313 316 317 316 319 318 317 316 314
310 312 314 313 315 324 326 322 320 317 318 319 323 328 330 332 333 333 333 335 336 335 332 331 330 328 326 324 318 316 308 306 307 307 306 305 306 306 310 314 314 313 318 318 316 314 313 310 312
311 312 312 311 316 317 320 321 316 315 318 320 323 329 332 332 332 333 332 335 336 334 332 331 330 325 320 317 317 313 306 307 307 306 305 306 305 309 311 311 306 314 314 314 317 318 317 313 313
311 311 309 312 313 313 314 315 317 314 315 316 320 326 333 334 333 333 334 336 336 334 332 329 327 324 318 317 316 310 306 307 307 306 305 305 307 309 307 305 310 310 317 317 317 316 312 315 310
310 308 309 310 310 311 310 314 315 312 315 316 323 330 333 335 335 334 335 335 335 333 330 327 327 324 319 317 315 308 306 308 307 306 305 305 309 308 306 309 310 316 318 317 318 311 313 311 310
306 305 307 309 309 310 311 314 312 314 314 315 325 328 332 335 336 334 335 335 334 331 329 327 328 323 318 317 315 307 306 308 307 305 305 307 309 307 306 310 309 316 316 316 311 310 314 309 311
309 303 307 307 308 309 310 311 312 312 314 316 322 328 332 332 335 335 336 335 333 331 329 326 328 319 317 317 314 307 306 308 307 305 306 309 308 306 308 310 309 311 313 309 305 307 308 308 308
308 304 305 307 307 308 308 307 310 311 312 316 323 327 327 331 335 336 336 334 332 331 329 328 327 321 318 317 315 308 306 307 307 305 306 309 308 307 309 309 311 309 309 305 305 307 308 308 308
305 302 304 305 305 307 307 308 309 309 308 311 319 324 326 332 334 335 335 333 332 331 329 327 326 326 320 319 316 309 307 307 307 306 306 309 308 307 309 310 311 310 305 305 306 308 308 308 309
305 303 304 306 307 308 307 307 309 308 307 310 312 318 330 333 334 335 334 333 331 331 329 326 327 327 324 320 317 311 307 307 307 306 306 309 309 307 311 311 311 309 305 306 307 308 308 307 307
306 306 306 306 307 306 305 307 307 309 309 311 310 310 325 332 332 333 333 332 331 331 329 325 324 324 323 321 318 313 307 307 308 306 306 309 309 308 311 311 310 309 305 306 307 307 306 306 306
305 305 307 307 307 306 307 305 306 307 310 310 310 310 316 326 330 331 331 331 331 330 328 327 324 322 321 319 318 315 309 308 308 306 306 309 309 308 311 311 310 307 305 306 307 306 305 305 307
304 305 304 304 303 304 305 305 306 308 310 310 310 309 310 316 323 331 331 332 331 330 329 327 325 323 322 320 318 316 309 308 308 307 306 308 309 308 310 311 310 306 305 306 307 306 305 305 308
303 303 301 301 302 303 304 304 303 308 309 308 309 309 310 310 315 323 322 327 329 328 329 328 326 323 320 321 321 317 312 308 308 307 306 308 309 308 310 311 310 306 305 307 307 306 306 306 309
304 300 299 299 302 303 303 303 304 306 304 304 306 308 307 309 310 310 313 322 329 329 328 327 327 325 322 319 322 320 315 310 308 307 306 307 309 308 309 312 310 306 305 307 307 308 307 309 312
295 297 298 298 299 299 301 302 302 304 304 304 304 305 306 308 308 309 310 310 320 324 325 327 328 325 324 321 321 322 317 312 308 308 306 306 309 309 308 312 311 306 306 307 308 312 311 314 315
292 292 294 293 296 297 298 300 301 303 303 304 304 305 305 306 308 309 309 309 313 323 323 325 328 325 325 323 320 323 320 314 310 308 307 306 309 309 308 313 312 306 307 307 310 313 316 318 319
290 290 290 291 292 293 297 295 296 300 301 301 302 304 305 306 307 308 309 309 309 319 324 326 327 325 325 324 321 322 322 316 312 309 308 306 308 309 308 313 312 307 307 308 310 314 319 318 319
292 292 291 291 293 293 293 293 293 294 295 298 300 302 304 305 307 308 309 309 309 309 319 323 326 326 325 322 321 319 320 317 314 309 308 306 307 309 308 312 313 308 308 308 309 315 317 318 318
293 293 292 293 294 293 293 294 296 297 298 299 300 301 303 305 306 307 308 308 310 309 310 321 324 326 325 324 322 319 321 319 315 310 309 307 306 309 309 309 313 311 309 307 310 316 317 318 318
292 294 293 293 293 294 293 293 294 295 297 299 302 303 303 304 305 306 308 309 309 310 309 311 321 325 326 325 322 322 318 319 315 313 309 309 306 308 309 308 314 313 311 309 309 311 316 317 317
292 293 292 292 293 293 294 294 294 295 296 298 299 303 305 306 306 306 307 309 309 310 309 309 316 323 325 325 323 323 323 319 316 314 310 309 307 307 309 308 311 314 314 312 312 312 311 317 317
291 292 292 292 294 294 295 294 294 294 297 297 299 300 303 305 307 307 307 308 309 309 310 309 313 321 324 324 324 324 326 322 318 314 312 309 308 306 309 309 309 314 314 314 314 313 312 314 317
292 291 284 285 290 292 294 296 296 296 297 298 298 299 301 302 304 306 307 308 309 309 309 310 312 318 323 324 323 324 326 326 320 316 313 310 309 307 307 309 309 309 314 314 315 315 315 312 314
292 292 291 292 293 294 295 295 295 297 297 298 298 299 299 302 303 305 306 307 308 308 309 309 310 313 320 323 321 322 327 326 323 319 314 311 310 309 306 308 309 309 310 314 314 315 315 315 314
293 293 294 295 294 295 295 294 296 297 298 298 299 300 302 303 304 304 306 308 307 308 308 308 309 313 316 318 319 321 323 325 323 320 317 313 311 310 308 307 309 309 309 313 314 315 315 315 316
291 292 294 295 295 297 296 296 298 298 297 297 301 302 302 303 305 305 304 305 306 306 307 308 308 309 313 318 318 320 320 322 323 320 319 315 312 311 309 306 308 309 309 310 314 315 315 315 316
290 293 294 294 294 296 293 293 294 295 296 300 300 302 302 303 303 306 306 306 306 306 307 307 309 311 315 316 316 319 321 321 323 320 319 318 314 312 310 307 307 309 309 309 313 314 315 315 315
288 289 293 292 290 291 293 293 295 296 296 297 299 300 303 303 305 306 307 306 306 307 307 306 307 314 315 316 318 318 320 320 321 321 319 319 317 314 311 309 306 309 309 310 312 314 315 315 315
Wind_Speed
2 4 3 2 3 4 3 5 3 6 7 3 4 3 5 4 3 3 12 15 15 17 19 17 14 15 11 8 5 6 4 2 1 1 2 3 4 4 3 3 4 6 7 5 7 9 8 9 8
2 1 2 2 4 2 5 4 2 3 6 2 4 2 3 1 2 7 19 15 14 17 18 18 15 15 10 7 6 6 3 2 1 1 3 3 3 3 5 5 5 7 7 6 8 8 9 8 9
2 1 2 3 3 5 5 5 3 11 19 4 2 2 2 3 4 11 6 17 21 19 18 17 15 13 10 8 8 6 4 3 2 2 3 3 3 4 6 6 7 6 8 8 8 11 12 11 11
0 2 4 3 6 7 6 3 4 10 15 4 4 4 3 3 4 12 10 16 20 17 18 18 16 11 10 9 8 6 4 3 3 2 3 3 4 5 5 6 7 7 9 10 10 10 13 13 12
2 2 2 1 6 5 4 7 9 7 5 8 4 4 0 6 9 5 13 17 18 17 17 16 14 11 10 10 8 6 5 4 2 2 2 3 3 4 5 7 8 10 11 10 9 10 12 12 12
2 3 2 4 6 5 6 7 8 4 8 4 2 6 2 8 8 11 14 16 16 14 15 16 12 11 10 10 9 7 6 4 3 3 2 2 3 3 5 9 8 11 9 8 10 8 14 12 13
5 4 4 3 4 6 4 1 4 4 6 5 7 4 2 11 13 13 16 16 16 15 14 16 12 12 11 11 9 7 6 4 3 3 2 2 2 4 7 8 8 8 7 10 10 12 12 14 15
2 4 3 4 4 6 3 6 7 5 4 1 4 5 5 17 17 18 18 17 17 14 13 14 15 12 12 12 10 8 6 5 4 4 3 2 4 6 8 8 7 7 10 9 12 13 15 16 17
2 3 3 4 4 4 4 7 6 12 6 5 1 4 5 13 20 22 22 21 19 18 16 16 17 13 12 12 11 10 8 6 5 4 4 3 4 5 6 8 7 9 9 11 12 15 15 15 18
3 4 8 5 3 3 8 2 12 6 12 6 5 3 6 16 24 27 27 27 24 24 20 19 19 16 14 13 12 11 9 7 6 6 5 5 4 5 5 7 8 9 9 11 14 16 15 16 18
1 4 2 4 7 13 8 12 6 5 6 8 5 5 12 22 27 28 27 26 26 24 22 22 21 19 17 15 14 13 11 9 8 7 6 6 5 5 6 7 8 8 9 12 15 15 17 17 18
4 5 5 9 14 16 9 14 6 13 19 18 19 12 12 25 28 29 29 29 28 26 23 21 20 19 19 17 17 14 12 11 9 8 7 6 5 5 6 7 7 8 9 13 15 16 17 18 19
3 5 16 23 24 18 20 14 16 11 22 17 18 13 14 22 28 29 29 29 29 28 26 25 21 20 19 19 18 17 14 12 10 9 8 7 6 6 7 7 7 8 11 15 16 16 17 19 20
10 12 16 12 27 20 15 24 8 15 23 22 21 26 25 25 29 33 33 33 32 30 29 26 25 22 20 21 18 17 16 14 13 11 9 9 8 7 7 8 7 9 13 16 17 17 17 20 21
10 6 6 6 15 6 16 8 8 20 23 28 30 30 31 31 30 34 32 35 34 33 31 31 29 25 24 23 19 18 17 16 15 13 12 10 9 9 8 9 8 10 15 18 17 18 18 21 22
5 4 6 5 24 8 16 5 10 14 26 27 28 30 30 33 37 36 36 37 38 37 36 34 33 31 28 26 23 19 20 18 16 15 14 12 11 11 10 10 9 11 16 19 17 18 20 22 22
9 5 8 11 21 15 8 16 9 40 35 27 32 38 32 33 33 37 37 37 40 40 40 40 38 35 31 27 26 22 20 20 18 17 16 15 13 13 11 11 10 12 17 20 19 19 19 22 22
9 5 5 11 11 18 20 31 14 23 31 30 32 36 37 37 36 33 32 38 37 39 39 41 42 37 33 30 29 25 23 23 22 19 18 17 15 15 14 14 12 13 18 21 22 20 22 24 25
5 5 12 11 10 15 10 29 25 25 29 30 35 33 37 37 40 36 34 37 38 39 40 43 43 41 38 36 35 32 30 28 26 23 20 19 18 17 16 16 14 15 18 22 23 24 24 26 26
5 8 7 12 15 16 12 34 33 23 33 39 40 42 37 35 39 38 34 26 35 41 42 43 46 45 43 40 38 36 33 31 27 25 23 22 20 19 18 18 17 17 18 22 25 26 27 26 23
9 7 9 15 18 10 13 16 13 10 25 32 39 46 39 39 38 41 37 37 37 39 44 45 46 48 47 45 40 38 32 31 30 30 28 26 23 22 21 21 20 19 18 22 25 26 26 24 25
9 4 10 17 15 5 11 10 18 9 18 21 17 26 31 33 38 45 42 39 39 38 40 45 46 48 49 49 45 42 41 40 38 35 32 28 26 25 23 24 23 22 21 20 23 22 25 24 21
8 6 15 17 16 11 2 5 11 13 16 16 12 22 29 35 35 41 43 39 34 34 36 45 48 48 50 51 48 46 44 40 37 36 32 31 29 27 26 26 27 25 23 21 20 20 22 22 19
12 11 17 15 5 1 6 9 9 5 9 16 13 26 26 31 38 37 37 38 37 36 36 39 49 52 51 50 51 50 47 44 42 38 36 35 32 31 29 29 29 28 26 23 21 20 18 20 19
8 7 5 6 2 4 9 11 16 21 24 21 23 34 37 42 32 34 39 40 39 39 37 39 45 52 54 53 52 52 50 47 45 40 40 39 36 35 33 32 32 30 29 26 23 21 20 20 21
8 1 2 5 6 16 14 8 6 12 29 38 43 38 44 40 42 40 41 37 42 45 43 44 48 50 55 57 54 52 53 49 48 44 41 40 38 36 33 32 32 30 29 28 25 23 20 20 21
3 1 6 8 13 8 5 8 16 19 18 16 23 28 29 34 39 45 46 37 39 38 41 45 47 51 54 57 56 54 54 53 49 47 43 41 38 36 34 33 32 31 29 29 27 24 22 21 21
3 8 4 3 6 11 10 12 12 16 22 28 16 26 42 47 43 33 37 35 34 33 37 42 46 50 55 55 58 57 55 51 48 47 47 44 40 37 35 34 33 32 31 30 28 26 23 20 22
3 1 2 3 5 7 6 9 16 22 20 21 25 30 42 43 47 38 30 27 34 40 42 43 48 52 56 57 57 58 57 54 50 47 48 46 42 39 37 35 34 34 33 31 30 27 25 23 24
5 5 2 2 8 11 13 14 16 18 35 35 32 36 43 44 44 35 30 25 26 31 38 41 44 53 57 57 57 57 58 54 51 49 46 48 44 40 38 37 36 35 35 33 31 30 28 26 25
Wind_Direction
285 273 274 207 63 63 258 265 300 301 319 330 307 249 147 93 168 203 153 161 157 169 175 179 191 184 184 188 207 220 215 223 174 49 46 36 7 6 358 351 32 50 41 18 354 350 351 347 349
269 245 207 121 104 134 265 250 213 229 295 337 87 43 31 116 150 146 151 171 168 169 173 174 186 187 180 189 202 190 186 172 128 83 59 30 8 5 15 18 47 50 39 21 16 12 7 6 7
292 209 147 112 134 194 216 218 278 315 341 299 185 96 149 163 198 171 167 170 174 176 175 174 183 188 182 187 186 171 179 158 123 85 59 24 14 11 18 47 53 48 44 32 30 31 24 29 32
212 134 67 104 224 252 217 286 336 332 335 275 193 96 137 194 161 169 171 170 176 178 176 173 183 175 178 177 175 172 168 145 125 85 43 28 16 25 54 41 48 54 44 44 52 44 43 45 43
171 98 62 253 251 257 258 282 313 296 279 271 231 173 148 172 167 195 175 172 181 179 185 189 185 184 178 176 175 172 162 148 131 90 50 33 26 29 42 53 54 56 45 39 27 36 43 40 41
101 90 74 244 251 272 290 262 285 270 285 275 138 124 167 182 209 180 186 178 182 193 191 199 186 192 181 175 180 173 167 158 145 108 74 39 34 41 55 67 50 58 55 56 57 43 52 46 59
125 96 216 254 259 295 255 253 267 279 298 307 157 115 227 188 195 186 181 182 183 195 208 200 199 196 189 180 182 176 172 171 157 120 90 62 74 82 64 61 58 66 50 61 59 66 59 56 67
160 100 179 247 235 277 291 318 318 354 292 330 197 182 216 200 186 184 181 184 190 203 213 212 209 201 185 182 185 181 179 182 167 132 110 101 106 87 72 66 57 61 60 62 61 69 66 72 75
159 76 210 245 185 245 1 15 348 339 303 330 317 185 224 208 184 183 185 188 197 203 211 217 214 206 192 189 193 188 185 193 177 152 148 137 115 88 77 69 61 52 63 60 69 75 82 81 79
137 153 214 212 224 297 323 346 335 327 328 314 310 309 223 192 188 192 195 195 203 206 208 213 214 217 208 200 200 198 191 197 179 165 161 156 137 100 90 82 66 54 58 73 82 86 89 87 84
3 213 238 295 323 339 323 319 340 310 301 280 297 326 190 190 194 201 208 213 216 216 215 218 220 224 222 213 206 205 196 198 188 178 172 169 154 122 106 88 75 67 81 89 91 95 93 91 88
358 303 1 305 332 328 310 312 266 244 248 276 282 292 221 200 205 210 214 217 216 216 221 223 219 224 224 217 212 211 203 201 198 191 181 178 162 146 122 104 87 86 101 104 102 104 99 96 91
192 347 327 316 317 309 295 271 268 270 274 267 272 264 239 224 220 221 227 227 226 222 222 227 227 222 224 213 208 211 206 201 203 200 191 181 172 159 138 116 102 100 115 115 108 110 106 102 100
323 305 300 306 299 285 269 274 265 278 281 277 262 255 254 236 233 227 227 231 229 226 226 227 229 222 220 215 209 209 208 204 203 202 196 189 177 166 149 130 116 116 127 123 117 115 113 110 109
297 310 320 308 355 292 315 271 232 268 287 280 275 268 259 254 243 237 241 237 232 233 228 228 228 227 213 215 214 212 213 209 205 202 200 196 182 171 160 140 132 126 134 131 125 121 120 118 113
359 46 359 352 11 349 357 278 315 328 331 317 304 289 277 261 254 251 243 242 237 234 231 228 228 227 221 210 216 214 215 213 206 204 202 198 186 179 168 153 143 136 141 140 133 127 127 120 117
35 337 341 328 341 343 19 295 293 310 312 302 298 294 290 279 266 257 249 245 239 237 234 224 228 227 224 217 211 216 215 215 209 207 204 201 191 184 175 162 154 146 146 145 138 132 129 119 113
322 320 297 302 324 304 300 284 288 293 298 292 291 287 285 281 277 270 258 247 242 238 232 226 226 228 224 222 211 215 217 214 212 209 206 204 196 189 179 171 167 156 154 152 145 139 132 118 112
260 274 295 290 288 325 314 296 287 287 279 282 282 279 277 276 276 274 267 253 242 239 233 225 223 227 221 214 210 209 217 211 211 208 206 204 199 194 185 176 172 159 158 156 153 141 130 124 119
351 309 308 306 337 326 308 286 285 275 266 260 265 266 264 273 273 272 267 257 243 238 236 230 226 226 224 224 215 214 211 213 213 210 207 204 202 197 191 183 176 166 161 162 160 147 138 133 133
347 329 329 310 322 258 298 279 273 291 260 264 251 257 258 259 265 269 273 263 254 240 234 232 228 227 227 226 220 216 212 218 213 210 209 204 202 199 195 187 184 176 166 161 161 154 146 143 138
330 355 322 313 325 317 45 292 300 261 264 267 274 263 267 263 258 262 264 269 256 243 234 234 231 227 227 226 224 219 214 212 213 212 208 206 202 199 198 192 189 183 174 168 164 164 158 157 152
275 297 302 289 279 299 209 250 273 321 301 304 302 290 280 277 267 265 260 264 257 247 240 232 231 228 228 227 227 224 220 219 218 213 209 208 204 200 200 196 192 191 184 180 180 174 172 174 164
285 306 287 275 244 261 255 210 282 306 328 317 322 318 297 298 281 267 260 259 257 249 240 236 231 228 228 229 226 226 224 220 218 213 209 210 207 203 201 200 197 194 192 188 188 186 188 184 181
350 355 339 355 15 232 275 275 261 292 276 284 283 291 297 299 286 286 266 254 252 246 242 236 233 230 228 229 227 227 226 226 223 216 211 209 207 206 202 201 199 197 196 195 192 194 195 194 191
307 193 178 297 310 294 297 260 251 294 292 287 288 287 289 285 282 279 273 269 258 255 252 245 238 232 229 229 229 229 227 226 226 220 216 214 213 211 205 203 202 200 199 200 199 198 196 198 199
341 232 255 270 266 270 245 262 285 274 285 316 307 305 315 310 299 281 277 268 262 258 252 249 240 234 230 229 229 228 226 226 227 221 218 218 215 215 209 206 204 201 201 200 201 202 200 203 201
34 303 333 328 295 290 298 307 300 300 311 314 323 328 319 319 321 305 275 266 267 265 260 253 246 241 232 227 229 227 227 227 227 225 218 217 216 214 211 208 205 203 202 202 202 203 199 203 192
309 323 255 266 254 307 313 299 279 303 320 327 320 322 311 303 301 313 302 275 262 260 257 248 236 232 228 225 227 226 225 224 224 226 220 218 217 214 212 210 207 204 203 202 201 203 199 196 189
177 308 80 343 307 278 271 265 289 331 326 316 310 318 303 293 302 311 304 296 277 262 244 234 231 226 227 224 222 224 223 224 223 224 221 218 216 214 213 211 209 206 204 203 202 202 199 198 195